FFT1695 KMCO-KBUF

Flight info

Callsign FFT1695
Flight time 2h 16m
Altitude 39000
Route FATHE4 VIYAP Q69 RICCS DCT EWC DCT DKK DCT
Aircraft A20N/M-SDE2E3FGHIRWXY/LB1

Departure

Time 2026-05-04 23:49
Airport Orlando International Airport (KMCO)

Arrival

Time 2026-05-05 02:06
Airport Buffalo Niagara International Airport (KBUF)
Time Latitude Longitude Altitude Speed Heading
2026-05-04 22:58 28.43504 -81.31501 102 ft 0 kts 69°
2026-05-04 23:30 28.43500 -81.31518 101 ft 4 kts 76°
2026-05-04 23:31 28.43494 -81.31542 101 ft 4 kts 83°
2026-05-04 23:31 28.43496 -81.31571 99 ft 4 kts 118°
2026-05-04 23:31 28.43504 -81.31585 100 ft 1 kts 134°
2026-05-04 23:38 28.43500 -81.31582 101 ft 2 kts 142°
2026-05-04 23:38 28.43460 -81.31584 101 ft 10 kts 199°
2026-05-04 23:38 28.43401 -81.31653 101 ft 15 kts 223°
2026-05-04 23:39 28.43362 -81.31680 101 ft 2 kts 210°
2026-05-04 23:39 28.43340 -81.31694 101 ft 6 kts 210°
2026-05-04 23:39 28.43292 -81.31726 100 ft 10 kts 214°
2026-05-04 23:39 28.43236 -81.31807 97 ft 16 kts 234°
2026-05-04 23:40 28.43134 -81.31841 99 ft 17 kts 178°
2026-05-04 23:40 28.43022 -81.31837 100 ft 15 kts 178°
2026-05-04 23:40 28.42914 -81.31832 100 ft 17 kts 178°
2026-05-04 23:40 28.42794 -81.31834 100 ft 17 kts 180°
2026-05-04 23:41 28.42670 -81.31834 102 ft 18 kts 180°
2026-05-04 23:41 28.42539 -81.31833 102 ft 20 kts 179°
2026-05-04 23:41 28.42395 -81.31831 102 ft 21 kts 179°
2026-05-04 23:41 28.42280 -81.31808 102 ft 17 kts 135°
2026-05-04 23:42 28.42265 -81.31673 98 ft 19 kts 88°
2026-05-04 23:42 28.42267 -81.31516 97 ft 20 kts 89°
2026-05-04 23:42 28.42270 -81.31351 95 ft 22 kts 89°
2026-05-04 23:42 28.42256 -81.31175 95 ft 24 kts 100°
2026-05-04 23:43 28.42236 -81.30982 101 ft 23 kts 89°
2026-05-04 23:43 28.42246 -81.30797 103 ft 22 kts 85°
2026-05-04 23:43 28.42258 -81.30628 104 ft 22 kts 86°
2026-05-04 23:43 28.42268 -81.30455 101 ft 23 kts 86°
2026-05-04 23:44 28.42277 -81.30267 100 ft 24 kts 89°
2026-05-04 23:44 28.42279 -81.30085 100 ft 23 kts 89°
2026-05-04 23:44 28.42280 -81.29916 100 ft 18 kts 90°
2026-05-04 23:44 28.42229 -81.29797 99 ft 19 kts 160°
2026-05-04 23:45 28.42093 -81.29790 97 ft 20 kts 180°
2026-05-04 23:45 28.41946 -81.29789 99 ft 22 kts 180°
2026-05-04 23:45 28.41792 -81.29787 97 ft 23 kts 179°
2026-05-04 23:45 28.41626 -81.29785 99 ft 24 kts 180°
2026-05-04 23:46 28.41451 -81.29784 98 ft 26 kts 179°
2026-05-04 23:46 28.41277 -81.29782 98 ft 10 kts 179°
2026-05-04 23:46 28.41266 -81.29782 96 ft 3 kts 179°
2026-05-04 23:46 28.41221 -81.29781 96 ft 11 kts 179°
2026-05-04 23:47 28.41156 -81.29780 98 ft 3 kts 180°
2026-05-04 23:47 28.41101 -81.29780 96 ft 13 kts 180°
2026-05-04 23:47 28.40984 -81.29779 98 ft 21 kts 179°
2026-05-04 23:47 28.40839 -81.29760 96 ft 18 kts 138°
2026-05-04 23:48 28.40820 -81.29627 93 ft 17 kts 94°
2026-05-04 23:48 28.40872 -81.29562 92 ft 13 kts
2026-05-04 23:48 28.40898 -81.29561 92 ft 7 kts 359°
2026-05-04 23:48 28.41070 -81.29558 94 ft 50 kts
2026-05-04 23:49 28.41646 -81.29564 100 ft 113 kts 359°
2026-05-04 23:49 28.42611 -81.29586 104 ft 161 kts 359°
2026-05-04 23:49 28.43767 -81.29698 549 ft 170 kts
2026-05-04 23:49 28.44971 -81.29610 1017 ft 181 kts 18°
2026-05-04 23:50 28.46091 -81.29019 1749 ft 173 kts 37°
2026-05-04 23:50 28.47149 -81.28247 2276 ft 188 kts 34°
2026-05-04 23:50 28.48295 -81.27476 2861 ft 196 kts 32°
2026-05-04 23:50 28.49519 -81.26717 3369 ft 208 kts 30°
2026-05-04 23:51 28.50871 -81.25949 3828 ft 225 kts 26°
2026-05-04 23:51 28.52384 -81.25404 4562 ft 232 kts
2026-05-04 23:51 28.54010 -81.25219 5405 ft 236 kts
2026-05-04 23:51 28.55652 -81.25130 6216 ft 242 kts 356°
2026-05-04 23:52 28.57360 -81.25188 6488 ft 244 kts 356°
2026-05-04 23:52 28.59059 -81.25324 6667 ft 244 kts 349°
2026-05-04 23:52 28.60769 -81.25609 6839 ft 257 kts 349°
2026-05-04 23:52 28.62603 -81.25908 7221 ft 279 kts 349°
2026-05-04 23:53 28.64575 -81.26194 8068 ft 283 kts 351°
2026-05-04 23:53 28.66539 -81.26455 8966 ft 286 kts 351°
2026-05-04 23:53 28.68515 -81.26715 9850 ft 290 kts 351°
2026-05-04 23:53 28.70545 -81.26985 10483 ft 303 kts 351°
2026-05-04 23:54 28.72722 -81.27283 10759 ft 326 kts 351°
2026-05-04 23:54 28.75046 -81.27602 11126 ft 343 kts 351°
2026-05-04 23:54 28.77433 -81.27926 11883 ft 347 kts 351°
2026-05-04 23:54 28.79815 -81.28249 12638 ft 351 kts 351°
2026-05-04 23:55 28.82256 -81.28583 13424 ft 355 kts 351°
2026-05-04 23:55 28.84730 -81.28920 14140 ft 360 kts 352°
2026-05-04 23:55 28.89764 -81.29376 15478 ft 369 kts 353°
2026-05-04 23:56 28.92348 -81.29570 15775 ft 371 kts 353°
2026-05-04 23:56 28.94930 -81.29771 15922 ft 371 kts 353°
2026-05-04 23:56 28.97509 -81.29982 15996 ft 372 kts 353°
2026-05-04 23:56 29.00088 -81.30202 15996 ft 371 kts 352°
2026-05-04 23:57 29.02652 -81.30471 16000 ft 370 kts 351°
2026-05-04 23:57 29.05224 -81.30768 15999 ft 370 kts 351°
2026-05-04 23:57 29.07783 -81.31066 16002 ft 371 kts 351°
2026-05-04 23:57 29.10355 -81.31362 15993 ft 370 kts 351°
2026-05-04 23:58 29.12927 -81.31609 16077 ft 374 kts 353°
2026-05-04 23:58 29.15512 -81.31759 16669 ft 376 kts 354°
2026-05-04 23:58 29.18133 -81.31887 17396 ft 378 kts 354°
2026-05-04 23:58 29.20778 -81.32023 18041 ft 382 kts 353°
2026-05-04 23:59 29.23437 -81.32171 18647 ft 385 kts 353°
2026-05-04 23:59 29.26123 -81.32326 19250 ft 387 kts 353°
2026-05-04 23:59 29.28823 -81.32486 19830 ft 390 kts 352°
2026-05-04 23:59 29.31547 -81.32649 20433 ft 393 kts 352°
2026-05-05 00:00 29.34287 -81.32814 21026 ft 395 kts 352°
2026-05-05 00:00 29.35192 -81.32869 21214 ft 396 kts 352°
2026-05-05 00:00 29.39806 -81.33147 22177 ft 401 kts 352°
2026-05-05 00:00 29.42605 -81.33316 22732 ft 404 kts 352°
2026-05-05 00:01 29.45415 -81.33485 23301 ft 407 kts 351°
2026-05-05 00:01 29.48262 -81.33656 23808 ft 410 kts 351°
2026-05-05 00:01 29.51119 -81.33829 24277 ft 412 kts 351°
2026-05-05 00:01 29.53970 -81.34000 24759 ft 414 kts 351°
2026-05-05 00:02 29.56858 -81.34174 25197 ft 417 kts 351°
2026-05-05 00:02 29.59769 -81.34350 25640 ft 420 kts 351°
2026-05-05 00:02 29.62695 -81.34527 26084 ft 422 kts 350°
2026-05-05 00:02 29.65647 -81.34704 26496 ft 425 kts 350°
2026-05-05 00:03 29.68604 -81.34874 26908 ft 427 kts 350°
2026-05-05 00:03 29.71582 -81.35043 27331 ft 429 kts 350°
2026-05-05 00:03 29.74574 -81.35212 27736 ft 432 kts 350°
2026-05-05 00:03 29.77550 -81.35381 28093 ft 434 kts 349°
2026-05-05 00:04 29.80588 -81.35555 28477 ft 437 kts 349°
2026-05-05 00:04 29.83635 -81.35729 28850 ft 439 kts 349°
2026-05-05 00:04 29.86696 -81.35905 29198 ft 441 kts 349°
2026-05-05 00:04 29.89770 -81.36082 29535 ft 443 kts 349°
2026-05-05 00:05 29.92866 -81.36260 29868 ft 446 kts 349°
2026-05-05 00:05 29.95936 -81.36436 30198 ft 448 kts 349°
2026-05-05 00:05 29.99060 -81.36616 30497 ft 450 kts 349°
2026-05-05 00:05 30.02193 -81.36797 30810 ft 451 kts 349°
2026-05-05 00:06 30.05340 -81.36978 31124 ft 452 kts 349°
2026-05-05 00:06 30.08487 -81.37158 31491 ft 452 kts 349°
2026-05-05 00:06 30.11634 -81.37339 31887 ft 451 kts 349°
2026-05-05 00:06 30.14753 -81.37517 32292 ft 450 kts 349°
2026-05-05 00:07 30.17895 -81.37698 32686 ft 448 kts 349°
2026-05-05 00:07 30.21001 -81.37877 33081 ft 447 kts 349°
2026-05-05 00:07 30.23094 -81.37998 33345 ft 446 kts 348°
2026-05-05 00:07 30.26133 -81.38174 33706 ft 445 kts 348°
2026-05-05 00:08 30.29218 -81.38354 34061 ft 443 kts 348°
2026-05-05 00:08 30.32312 -81.38534 34359 ft 443 kts 348°
2026-05-05 00:08 30.35391 -81.38714 34605 ft 443 kts 348°
2026-05-05 00:08 30.38473 -81.38894 34854 ft 443 kts 348°
2026-05-05 00:09 30.41558 -81.39075 35038 ft 443 kts 348°
2026-05-05 00:09 30.47682 -81.39429 35084 ft 442 kts 348°
2026-05-05 00:10 30.53835 -81.39754 35102 ft 442 kts 348°
2026-05-05 00:10 30.59940 -81.40073 35104 ft 442 kts 348°
2026-05-05 00:11 30.66089 -81.40398 35108 ft 441 kts 348°
2026-05-05 00:11 30.72235 -81.40725 35103 ft 441 kts 348°
2026-05-05 00:12 30.78339 -81.41050 35094 ft 441 kts 348°
2026-05-05 00:12 30.84482 -81.41378 35099 ft 441 kts 348°
2026-05-05 00:13 30.90619 -81.41705 35085 ft 441 kts 348°
2026-05-05 00:13 30.96761 -81.42033 35084 ft 441 kts 348°
2026-05-05 00:14 31.02897 -81.42361 35093 ft 441 kts 348°
2026-05-05 00:14 31.09039 -81.42691 35093 ft 441 kts 348°
2026-05-05 00:15 31.15151 -81.43019 35096 ft 442 kts 348°
2026-05-05 00:15 31.21308 -81.43349 35107 ft 442 kts 348°
2026-05-05 00:16 31.27426 -81.43653 35109 ft 443 kts 350°
2026-05-05 00:16 31.33612 -81.43707 35104 ft 445 kts 351°
2026-05-05 00:17 31.39790 -81.43741 35103 ft 444 kts 351°
2026-05-05 00:17 31.46013 -81.43499 35096 ft 453 kts 359°
2026-05-05 00:18 31.52254 -81.41895 35092 ft 466 kts 10°
2026-05-05 00:18 31.58390 -81.39375 35085 ft 467 kts 11°
2026-05-05 00:19 31.63492 -81.37293 35087 ft 467 kts 11°
2026-05-05 00:19 31.69643 -81.34771 35083 ft 467 kts 12°
2026-05-05 00:20 31.75774 -81.32246 35085 ft 467 kts 12°
2026-05-05 00:20 31.81886 -81.29726 35074 ft 467 kts 12°
2026-05-05 00:21 31.88018 -81.27193 35075 ft 467 kts 12°
2026-05-05 00:21 31.94199 -81.24750 35075 ft 463 kts
2026-05-05 00:22 32.00468 -81.23558 35068 ft 452 kts 356°
2026-05-05 00:22 32.06696 -81.23259 35095 ft 451 kts 355°
2026-05-05 00:23 32.12977 -81.22935 35096 ft 451 kts 356°
2026-05-05 00:23 32.19265 -81.22617 35094 ft 451 kts 356°
2026-05-05 00:24 32.25505 -81.22305 35091 ft 451 kts 356°
2026-05-05 00:24 32.31791 -81.21992 35093 ft 451 kts 356°
2026-05-05 00:25 32.38081 -81.21678 35092 ft 452 kts 356°
2026-05-05 00:25 32.44360 -81.21364 35084 ft 452 kts 356°
2026-05-05 00:26 32.50625 -81.20662 35080 ft 459 kts
2026-05-05 00:26 32.56901 -81.19196 35079 ft 459 kts
2026-05-05 00:27 32.63185 -81.17760 35079 ft 459 kts
2026-05-05 00:27 32.69419 -81.16328 35079 ft 460 kts
2026-05-05 00:28 32.75713 -81.14876 35080 ft 460 kts
2026-05-05 00:28 32.81993 -81.13424 35079 ft 460 kts
2026-05-05 00:29 32.88293 -81.11965 35080 ft 460 kts
2026-05-05 00:29 32.94577 -81.10508 35082 ft 460 kts
2026-05-05 00:30 33.00836 -81.09054 35081 ft 460 kts
2026-05-05 00:30 33.07122 -81.07593 35084 ft 460 kts
2026-05-05 00:31 33.13404 -81.06130 35074 ft 459 kts
2026-05-05 00:31 33.19687 -81.04664 35070 ft 459 kts
2026-05-05 00:32 33.25923 -81.03208 35068 ft 459 kts
2026-05-05 00:32 33.32200 -81.01741 35064 ft 458 kts
2026-05-05 00:33 33.38438 -81.00280 35065 ft 458 kts
2026-05-05 00:33 33.44703 -80.98811 35063 ft 458 kts
2026-05-05 00:34 33.50947 -80.97344 35061 ft 458 kts
2026-05-05 00:34 33.57217 -80.95869 35034 ft 458 kts
2026-05-05 00:35 33.63441 -80.94403 35034 ft 458 kts
2026-05-05 00:35 33.69689 -80.92929 35036 ft 458 kts
2026-05-05 00:36 33.75947 -80.91451 35023 ft 458 kts
2026-05-05 00:36 33.82209 -80.89970 35021 ft 457 kts
2026-05-05 00:37 33.88412 -80.88560 35025 ft 455 kts
2026-05-05 00:37 33.94688 -80.87490 35020 ft 455 kts
2026-05-05 00:38 34.00964 -80.86416 35023 ft 455 kts
2026-05-05 00:38 34.07241 -80.85295 35048 ft 455 kts
2026-05-05 00:39 34.13504 -80.84165 35048 ft 455 kts
2026-05-05 00:39 34.19727 -80.83039 35054 ft 454 kts
2026-05-05 00:40 34.25979 -80.81907 35050 ft 454 kts
2026-05-05 00:40 34.32247 -80.80772 35289 ft 455 kts
2026-05-05 00:40 34.35383 -80.80202 35591 ft 453 kts
2026-05-05 00:41 34.38500 -80.79636 35847 ft 453 kts
2026-05-05 00:41 34.41592 -80.79074 36100 ft 452 kts
2026-05-05 00:41 34.44698 -80.78509 36350 ft 451 kts
2026-05-05 00:41 34.47798 -80.77944 36583 ft 451 kts
2026-05-05 00:42 34.50880 -80.77383 36809 ft 450 kts
2026-05-05 00:42 34.54000 -80.76815 37047 ft 450 kts
2026-05-05 00:42 34.57098 -80.76250 37278 ft 449 kts
2026-05-05 00:42 34.60199 -80.75684 37496 ft 449 kts
2026-05-05 00:43 34.63287 -80.75120 37718 ft 448 kts
2026-05-05 00:43 34.66340 -80.74561 37923 ft 447 kts
2026-05-05 00:43 34.69416 -80.73999 38125 ft 447 kts
2026-05-05 00:43 34.72499 -80.73434 38313 ft 446 kts
2026-05-05 00:44 34.75538 -80.72878 38499 ft 446 kts
2026-05-05 00:44 34.78599 -80.72316 38667 ft 445 kts
2026-05-05 00:44 34.81671 -80.71753 38807 ft 445 kts
2026-05-05 00:44 34.84749 -80.71188 38916 ft 445 kts
2026-05-05 00:45 34.87805 -80.70626 39005 ft 446 kts
2026-05-05 00:45 34.93946 -80.69496 39026 ft 445 kts
2026-05-05 00:46 35.00041 -80.68373 39030 ft 445 kts
2026-05-05 00:46 35.06300 -80.67219 39028 ft 445 kts
2026-05-05 00:47 35.12414 -80.66089 39029 ft 445 kts
2026-05-05 00:47 35.18552 -80.64952 39030 ft 445 kts
2026-05-05 00:48 35.24640 -80.63824 39028 ft 445 kts
2026-05-05 00:48 35.30782 -80.62684 39029 ft 445 kts
2026-05-05 00:49 35.36878 -80.61550 39032 ft 445 kts
2026-05-05 00:49 35.42999 -80.60410 39032 ft 445 kts
2026-05-05 00:50 35.49118 -80.59268 39032 ft 445 kts
2026-05-05 00:50 35.55242 -80.58124 39030 ft 445 kts
2026-05-05 00:51 35.61373 -80.56977 39035 ft 444 kts
2026-05-05 00:51 35.67504 -80.55828 39033 ft 444 kts
2026-05-05 00:52 35.73626 -80.54679 39035 ft 444 kts
2026-05-05 00:52 35.79705 -80.53537 39023 ft 444 kts
2026-05-05 00:53 35.85816 -80.52386 39017 ft 444 kts
2026-05-05 00:53 35.91926 -80.51234 39007 ft 443 kts
2026-05-05 00:54 35.98019 -80.50083 39000 ft 443 kts
2026-05-05 00:54 36.04082 -80.48937 38985 ft 443 kts
2026-05-05 00:55 36.10216 -80.47775 38976 ft 443 kts
2026-05-05 00:55 36.16270 -80.46626 38982 ft 443 kts
2026-05-05 00:56 36.22384 -80.45464 38989 ft 442 kts
2026-05-05 00:56 36.27454 -80.44499 38999 ft 442 kts
2026-05-05 00:57 36.34527 -80.43151 39006 ft 442 kts
2026-05-05 00:57 36.39585 -80.42186 39012 ft 442 kts
2026-05-05 00:58 36.46669 -80.40786 39017 ft 443 kts
2026-05-05 00:58 36.51771 -80.39736 39016 ft 443 kts
2026-05-05 00:59 36.57854 -80.38490 39012 ft 443 kts
2026-05-05 00:59 36.63904 -80.37255 39005 ft 443 kts
2026-05-05 01:00 36.69995 -80.36011 38994 ft 443 kts
2026-05-05 01:00 36.76093 -80.34797 38983 ft 441 kts
2026-05-05 01:01 36.82154 -80.33967 38989 ft 440 kts
2026-05-05 01:01 36.88254 -80.33161 38985 ft 439 kts
2026-05-05 01:02 36.94304 -80.32316 38998 ft 439 kts
2026-05-05 01:02 37.00381 -80.31452 39006 ft 440 kts
2026-05-05 01:03 37.06476 -80.30582 39009 ft 440 kts
2026-05-05 01:03 37.12563 -80.29713 39011 ft 440 kts
2026-05-05 01:04 37.18662 -80.28841 39016 ft 441 kts
2026-05-05 01:04 37.27785 -80.27534 39011 ft 441 kts
2026-05-05 01:05 37.33903 -80.26655 38999 ft 442 kts
2026-05-05 01:05 37.40035 -80.25773 38987 ft 443 kts
2026-05-05 01:06 37.46145 -80.24893 38965 ft 445 kts
2026-05-05 01:06 37.52309 -80.24003 38969 ft 446 kts
2026-05-05 01:07 37.58436 -80.23118 38975 ft 447 kts
2026-05-05 01:07 37.64624 -80.22222 38979 ft 448 kts
2026-05-05 01:08 37.70765 -80.21314 38978 ft 446 kts
2026-05-05 01:08 37.76935 -80.20391 38984 ft 446 kts
2026-05-05 01:09 37.83115 -80.19467 38982 ft 445 kts
2026-05-05 01:09 37.89271 -80.18547 38980 ft 445 kts
2026-05-05 01:10 37.95380 -80.17632 38981 ft 445 kts
2026-05-05 01:10 38.01537 -80.16708 38976 ft 444 kts
2026-05-05 01:11 38.07684 -80.15785 38982 ft 444 kts
2026-05-05 01:11 38.13783 -80.14867 38979 ft 444 kts
2026-05-05 01:12 38.19931 -80.13940 38967 ft 444 kts
2026-05-05 01:12 38.26026 -80.13020 38962 ft 444 kts
2026-05-05 01:13 38.32167 -80.12092 38955 ft 443 kts
2026-05-05 01:13 38.38291 -80.11339 38955 ft 440 kts 358°
2026-05-05 01:14 38.44440 -80.11020 38958 ft 441 kts 358°
2026-05-05 01:14 38.50550 -80.10677 38959 ft 440 kts 358°
2026-05-05 01:15 38.56647 -80.10339 38950 ft 440 kts 358°
2026-05-05 01:15 38.62771 -80.10002 38940 ft 440 kts 358°
2026-05-05 01:16 38.68897 -80.09665 38942 ft 440 kts 358°
2026-05-05 01:16 38.75016 -80.09328 38942 ft 439 kts 358°
2026-05-05 01:17 38.81141 -80.08989 38933 ft 439 kts 358°
2026-05-05 01:17 38.87210 -80.08653 38950 ft 440 kts 358°
2026-05-05 01:18 38.93325 -80.08459 38936 ft 437 kts 353°
2026-05-05 01:18 38.99403 -80.08877 38933 ft 437 kts 353°
2026-05-05 01:19 39.05467 -80.09262 38929 ft 437 kts 353°
2026-05-05 01:19 39.11576 -80.09658 38906 ft 438 kts 353°
2026-05-05 01:20 39.17658 -80.10056 38908 ft 438 kts 353°
2026-05-05 01:20 39.23751 -80.10457 38906 ft 437 kts 353°
2026-05-05 01:21 39.29821 -80.10856 38906 ft 436 kts 353°
2026-05-05 01:21 39.35886 -80.11257 38910 ft 436 kts 353°
2026-05-05 01:22 39.41912 -80.11656 38901 ft 436 kts 353°
2026-05-05 01:22 39.47959 -80.12056 38896 ft 436 kts 353°
2026-05-05 01:23 39.54007 -80.12457 38897 ft 435 kts 353°
2026-05-05 01:23 39.60068 -80.12860 38900 ft 435 kts 353°
2026-05-05 01:24 39.66115 -80.13262 38896 ft 434 kts 353°
2026-05-05 01:24 39.72143 -80.13664 38892 ft 434 kts 352°
2026-05-05 01:25 39.78159 -80.14066 38888 ft 434 kts 352°
2026-05-05 01:25 39.84185 -80.14469 38884 ft 434 kts 352°
2026-05-05 01:26 39.90186 -80.14871 38874 ft 434 kts 352°
2026-05-05 01:26 39.96245 -80.15277 38880 ft 434 kts 352°
2026-05-05 01:27 40.02292 -80.15684 38885 ft 434 kts 352°
2026-05-05 01:27 40.08327 -80.16091 38890 ft 434 kts 352°
2026-05-05 01:28 40.14372 -80.16499 38893 ft 434 kts 352°
2026-05-05 01:28 40.20379 -80.16906 38889 ft 434 kts 352°
2026-05-05 01:29 40.26450 -80.17317 38887 ft 434 kts 352°
2026-05-05 01:29 40.32380 -80.17720 38844 ft 434 kts 352°
2026-05-05 01:30 40.38427 -80.18131 38837 ft 434 kts 352°
2026-05-05 01:30 40.44412 -80.18539 38834 ft 434 kts 352°
2026-05-05 01:31 40.50462 -80.18952 38835 ft 433 kts 352°
2026-05-05 01:31 40.56459 -80.19362 38835 ft 434 kts 352°
2026-05-05 01:32 40.62479 -80.19775 38834 ft 433 kts 352°
2026-05-05 01:32 40.68513 -80.20188 38831 ft 433 kts 352°
2026-05-05 01:33 40.74524 -80.20601 38834 ft 433 kts 351°
2026-05-05 01:33 40.80602 -80.20544 38831 ft 440 kts
2026-05-05 01:34 40.86614 -80.18785 38830 ft 449 kts 14°
2026-05-05 01:34 40.92439 -80.15666 38826 ft 452 kts 17°
2026-05-05 01:35 40.98256 -80.12492 38818 ft 452 kts 17°
2026-05-05 01:35 41.04094 -80.09289 38819 ft 453 kts 17°
2026-05-05 01:36 41.09910 -80.06081 38827 ft 453 kts 17°
2026-05-05 01:36 41.15748 -80.02853 38824 ft 454 kts 17°
2026-05-05 01:37 41.21562 -79.99632 38818 ft 454 kts 17°
2026-05-05 01:37 41.27373 -79.96408 38806 ft 454 kts 17°
2026-05-05 01:38 41.33222 -79.93156 38805 ft 454 kts 17°
2026-05-05 01:38 41.39052 -79.89907 38811 ft 454 kts 17°
2026-05-05 01:39 41.44895 -79.86646 38816 ft 454 kts 17°
2026-05-05 01:39 41.50682 -79.83407 38558 ft 450 kts 17°
2026-05-05 01:40 41.53584 -79.81781 38002 ft 450 kts 17°
2026-05-05 01:40 41.56462 -79.80169 37303 ft 450 kts 17°
2026-05-05 01:40 41.59351 -79.78550 36586 ft 450 kts 17°
2026-05-05 01:40 41.62233 -79.76934 35881 ft 451 kts 17°
2026-05-05 01:41 41.64165 -79.75849 35426 ft 451 kts 18°
2026-05-05 01:41 41.67057 -79.74223 34735 ft 451 kts 18°
2026-05-05 01:41 41.69947 -79.72596 34093 ft 451 kts 18°
2026-05-05 01:41 41.72849 -79.70961 33349 ft 451 kts 18°
2026-05-05 01:42 41.75732 -79.69335 32523 ft 453 kts 18°
2026-05-05 01:42 41.78667 -79.67679 31640 ft 456 kts 18°
2026-05-05 01:42 41.81501 -79.66079 30800 ft 459 kts 18°
2026-05-05 01:42 41.84498 -79.64384 29959 ft 461 kts 19°
2026-05-05 01:43 41.87391 -79.62745 29265 ft 459 kts 19°
2026-05-05 01:43 41.90312 -79.61085 28634 ft 453 kts 19°
2026-05-05 01:43 41.93208 -79.59438 27981 ft 450 kts 19°
2026-05-05 01:43 41.96039 -79.57829 27352 ft 446 kts 18°
2026-05-05 01:44 41.98870 -79.56218 26739 ft 442 kts 18°
2026-05-05 01:44 42.01713 -79.54599 26125 ft 439 kts 18°
2026-05-05 01:44 42.04479 -79.53023 25538 ft 436 kts 18°
2026-05-05 01:44 42.07265 -79.51433 24959 ft 432 kts 18°
2026-05-05 01:45 42.10019 -79.49860 24383 ft 429 kts 18°
2026-05-05 01:45 42.12780 -79.48282 23846 ft 426 kts 18°
2026-05-05 01:45 42.15454 -79.46752 23290 ft 423 kts 18°
2026-05-05 01:45 42.18170 -79.45198 22646 ft 420 kts 18°
2026-05-05 01:46 42.20849 -79.43662 22033 ft 417 kts 18°
2026-05-05 01:46 42.23512 -79.42135 21424 ft 414 kts 18°
2026-05-05 01:46 42.26145 -79.40623 20846 ft 411 kts 18°
2026-05-05 01:46 42.28780 -79.39109 20243 ft 408 kts 18°
2026-05-05 01:47 42.31379 -79.37614 19676 ft 406 kts 18°
2026-05-05 01:47 42.33969 -79.36123 19082 ft 403 kts 18°
2026-05-05 01:47 42.36541 -79.34641 18529 ft 400 kts 18°
2026-05-05 01:47 42.39090 -79.33171 17985 ft 398 kts 18°
2026-05-05 01:48 42.41622 -79.31709 17415 ft 395 kts 18°
2026-05-05 01:48 42.44133 -79.30256 16858 ft 391 kts 18°
2026-05-05 01:48 42.46637 -79.28807 16353 ft 387 kts 18°
2026-05-05 01:48 42.49101 -79.27381 15796 ft 384 kts 18°
2026-05-05 01:49 42.51401 -79.25514 15263 ft 390 kts 37°
2026-05-05 01:49 42.53209 -79.22756 14732 ft 392 kts 50°
2026-05-05 01:49 42.54848 -79.19813 14223 ft 390 kts 50°
2026-05-05 01:49 42.56477 -79.16877 13732 ft 386 kts 50°
2026-05-05 01:50 42.58077 -79.13987 13194 ft 384 kts 50°
2026-05-05 01:50 42.59691 -79.11085 12640 ft 381 kts 50°
2026-05-05 01:50 42.61270 -79.08264 12102 ft 378 kts 50°
2026-05-05 01:50 42.62848 -79.05454 11843 ft 368 kts 50°
2026-05-05 01:51 42.64373 -79.02735 11692 ft 354 kts 50°
2026-05-05 01:51 42.65835 -79.00121 11567 ft 341 kts 50°
2026-05-05 01:51 42.67246 -78.97592 11372 ft 331 kts 50°
2026-05-05 01:51 42.68635 -78.95108 10980 ft 329 kts 50°
2026-05-05 01:52 42.70011 -78.92652 10782 ft 320 kts 50°
2026-05-05 01:52 42.71340 -78.90276 10531 ft 314 kts 50°
2026-05-05 01:52 42.72661 -78.87921 10174 ft 312 kts 50°
2026-05-05 01:52 42.73979 -78.85578 9813 ft 311 kts 50°
2026-05-05 01:53 42.75280 -78.83269 9452 ft 309 kts 50°
2026-05-05 01:53 42.76591 -78.80954 9116 ft 306 kts 50°
2026-05-05 01:53 42.77885 -78.78681 9017 ft 309 kts 49°
2026-05-05 01:53 42.79207 -78.76356 8991 ft 309 kts 50°
2026-05-05 01:54 42.80532 -78.74033 8991 ft 309 kts 50°
2026-05-05 01:54 42.81842 -78.71726 9002 ft 301 kts 49°
2026-05-05 01:54 42.83099 -78.69500 9014 ft 297 kts 49°
2026-05-05 01:54 42.84362 -78.67263 8946 ft 297 kts 50°
2026-05-05 01:55 42.85607 -78.65062 8706 ft 296 kts 49°
2026-05-05 01:55 42.86882 -78.62815 8363 ft 295 kts 50°
2026-05-05 01:55 42.88148 -78.60604 7986 ft 295 kts 49°
2026-05-05 01:55 42.89395 -78.58443 7611 ft 293 kts 50°
2026-05-05 01:56 42.90654 -78.56285 7147 ft 293 kts 50°
2026-05-05 01:56 42.91941 -78.54106 6739 ft 291 kts 49°
2026-05-05 01:56 42.93216 -78.51974 6320 ft 290 kts 49°
2026-05-05 01:56 42.94502 -78.49845 5910 ft 288 kts 49°
2026-05-05 01:57 42.95777 -78.47748 5470 ft 287 kts 49°
2026-05-05 01:57 42.97060 -78.45650 5115 ft 284 kts 49°
2026-05-05 01:57 42.98339 -78.43576 5077 ft 287 kts 49°
2026-05-05 01:57 42.99634 -78.41484 5148 ft 288 kts 49°
2026-05-05 01:58 43.01036 -78.39625 5212 ft 285 kts 29°
2026-05-05 01:58 43.02863 -78.38720 5248 ft 276 kts 359°
2026-05-05 01:58 43.04695 -78.39031 5299 ft 260 kts 329°
2026-05-05 01:58 43.06097 -78.40399 5347 ft 239 kts 302°
2026-05-05 01:59 43.07110 -78.42132 5104 ft 231 kts 299°
2026-05-05 01:59 43.08083 -78.43810 5008 ft 217 kts 299°
2026-05-05 01:59 43.08995 -78.45363 5001 ft 203 kts 295°
2026-05-05 01:59 43.09324 -78.47112 5001 ft 186 kts 253°
2026-05-05 02:00 43.08861 -78.48721 4933 ft 181 kts 240°
2026-05-05 02:00 43.08264 -78.50221 4765 ft 183 kts 238°
2026-05-05 02:00 43.07617 -78.51705 4530 ft 179 kts 236°
2026-05-05 02:00 43.06958 -78.53129 4330 ft 172 kts 235°
2026-05-05 02:01 43.06323 -78.54442 4089 ft 161 kts 234°
2026-05-05 02:01 43.05705 -78.55673 3875 ft 152 kts 233°
2026-05-05 02:01 43.05108 -78.56814 3679 ft 142 kts 232°
2026-05-05 02:01 43.04540 -78.57861 3501 ft 132 kts 231°
2026-05-05 02:02 43.04001 -78.58822 3332 ft 121 kts 230°
2026-05-05 02:02 43.03508 -78.59679 3195 ft 113 kts 230°
2026-05-05 02:02 43.03001 -78.60527 3044 ft 116 kts 229°
2026-05-05 02:02 43.02486 -78.61353 2894 ft 112 kts 228°
2026-05-05 02:03 43.01971 -78.62151 2747 ft 113 kts 227°
2026-05-05 02:03 43.01449 -78.62934 2589 ft 114 kts 227°
2026-05-05 02:03 43.00900 -78.63737 2447 ft 112 kts 226°
2026-05-05 02:03 43.00366 -78.64501 2308 ft 115 kts 225°
2026-05-05 02:04 42.99799 -78.65293 2150 ft 117 kts 225°
2026-05-05 02:04 42.99227 -78.66082 1993 ft 117 kts 224°
2026-05-05 02:04 42.98659 -78.66861 1837 ft 115 kts 223°
2026-05-05 02:04 42.98088 -78.67636 1685 ft 116 kts 222°
2026-05-05 02:05 42.97494 -78.68420 1531 ft 123 kts 220°
2026-05-05 02:05 42.96871 -78.69241 1288 ft 130 kts 222°
2026-05-05 02:05 42.96213 -78.70095 1086 ft 134 kts 223°
2026-05-05 02:05 42.95538 -78.70995 939 ft 136 kts 223°
2026-05-05 02:06 42.94857 -78.71885 759 ft 135 kts 222°
2026-05-05 02:06 42.94209 -78.72741 681 ft 107 kts 223°
2026-05-05 02:06 42.93853 -78.73205 684 ft 42 kts 224°
2026-05-05 02:06 42.93765 -78.73263 690 ft 8 kts 185°
2026-05-05 02:07 42.93721 -78.73269 691 ft 8 kts 186°
2026-05-05 02:07 42.93661 -78.73278 686 ft 8 kts 187°
2026-05-05 02:07 42.93610 -78.73321 684 ft 7 kts 223°
2026-05-05 02:07 42.93571 -78.73369 684 ft 9 kts 223°
2026-05-05 02:08 42.93531 -78.73421 685 ft 7 kts 223°
2026-05-05 02:08 42.93511 -78.73446 683 ft 2 kts 223°
2026-05-05 02:08 42.93486 -78.73478 683 ft 8 kts 223°
2026-05-05 02:08 42.93458 -78.73487 680 ft 5 kts 159°
2026-05-05 02:09 42.93411 -78.73463 680 ft 9 kts 159°
2026-05-05 02:09 42.93395 -78.73454 684 ft 3 kts 155°
2026-05-05 02:09 42.93367 -78.73435 681 ft 5 kts 154°
2026-05-05 02:09 42.93358 -78.73429 679 ft 2 kts 154°
2026-05-05 02:10 42.93353 -78.73426 680 ft 1 kts 154°
2026-05-05 02:10 42.93352 -78.73425 680 ft 0 kts 154°